Location: Ecquevilly
(48.9519°N, 1.9234°E)
Time: 11:31:55
(UTC+00:00)

Daily predictions for brighter satellites

Satellite Brightness Start Highest point End
(mag) Time Altitude Azimuth Time Altitude Azimuth Time Altitude Azimuth
USA 306 2.6 20:16:30 10° WNW 20:20:15 83° NNE 20:24:09 10° ESE
USA 59 Rocket 1.5 20:17:48 10° NNW 20:20:52 25° NE 20:24:39 10° E
Lacrosse 4 Rocket 3.7 20:19:11 10° N 20:21:27 14° NE 20:23:44 10° ENE
Tsikada Rocket 4.0 20:17:48 10° S 20:23:59 83° E 20:30:19 10° N
Cosmos 1943 3.4 20:21:03 10° S 20:26:31 52° ESE 20:32:00 10° NE
USA 276 3.9 20:26:44 10° WSW 20:27:31 11° SW 20:28:19 10° SSW
IRS-1C Rocket 4.2 20:22:29 10° SSE 20:27:43 72° ENE 20:32:59 10° NNW
Okean 3 Rocket 3.7 20:23:50 10° N 20:28:11 61° ENE 20:32:30 10° SSE
Cosmos 1842 Rocket 3.9 20:24:04 10° SSE 20:28:19 48° E 20:32:34 10° NNE
Spot 2 Rocket 4.1 20:25:35 10° SE 20:30:20 43° ENE 20:35:06 10° N
ISS -3.2 20:27:29 10° WNW 20:30:43 47° SSW 20:33:56 10° SE
Resurs 01 Rocket 3.4 20:26:56 10° SSW 20:30:53 31° W 20:34:51 10° NNW
IRS-1A Rocket 4.3 20:25:52 10° SSE 20:31:27 73° ENE 20:36:59 10° NNW
ARGOS Delta rocket 4.1 20:28:01 10° SSE 20:32:54 57° ENE 20:37:31 10° N
Cosmos 1340 4.1 20:36:56 10° NNE 20:39:31 20° ENE 20:42:01 10° ESE
Okean O Rocket 3.4 20:37:14 10° SSW 20:41:07 29° W 20:45:01 10° NW
SPOT 3 Rocket 4.0 20:36:15 10° SE 20:41:10 48° ENE 20:46:06 10° N
Sich 1 4.1 20:37:20 10° N 20:41:16 32° ENE 20:44:54 11° SE
CZ-4 R/B 4.5 20:41:14 10° W 20:41:54 10° W 20:42:35 10° WNW
USA 307 -0.6 20:42:38 10° NW 20:43:28 51° NNE 20:43:28 51° NNE
Cosmos 2221 3.4 20:40:38 10° SSW 20:44:50 51° WNW 20:49:05 10° N
Meteor 1-27 Rocket 4.4 20:41:18 10° SSE 20:46:15 35° E 20:51:16 10° NNE
USA 281 3.8 20:43:33 10° SE 20:49:51 50° NE 20:56:10 10° NNW
Ariane Rocket 3.1 20:48:21 11° SSE 20:53:13 65° ENE 20:58:16 10° N
MetOp-B 4.5 20:48:02 10° S 20:53:21 66° WSW 20:58:42 10° NNW
Terra 1.8 20:59:36 11° SSE 21:04:07 89° WSW 21:08:53 10° NNW
Cosmos 1340 Rocket 3.5 21:03:13 15° SSE 21:06:06 35° E 21:09:46 10° NNE
Cosmos 1452 Rocket 3.8 21:01:23 10° NNW 21:06:35 65° WSW 21:11:26 12° S
MOS 1 Rocket 3.6 21:02:02 13° SSE 21:06:37 70° ENE 21:11:58 10° N
Cosmos 1743 Rocket 3.9 21:03:17 10° N 21:07:37 52° ENE 21:10:56 16° SSE
USA 234 4.4 21:05:28 10° ENE 21:11:38 45° N 21:17:47 10° WNW
Cosmos 468 4.5 21:06:34 10° SSW 21:11:47 86° ESE 21:17:02 10° NNE
NOSS 2-1 (C) 3.9 21:08:36 10° NW 21:12:14 55° NE 21:16:11 15° ESE
Lacrosse 5 rocket 3.5 21:08:37 10° WNW 21:12:19 28° N 21:15:59 10° NE
ARIANE 5 R/B 4.4 21:12:44 11° ESE 21:15:41 20° ENE 21:18:46 10° NNE
Cosmos 1408 Rocket 3.7 21:12:56 10° NNW 21:17:23 74° W 21:21:17 13° S
ERS-1 Rocket 3.4 21:12:30 10° S 21:17:28 60° W 21:22:27 10° NNW
Meteor 2-10 4.1 21:14:20 10° N 21:19:54 83° ENE 21:24:13 16° SSE
USA 245 3.8 21:22:29 14° SSW 21:23:58 27° W 21:26:05 10° NW
Cosmos 2279 Rocket 4.4 21:18:25 10° NNW 21:24:31 61° W 21:30:35 10° S
SL-8 R/B 3.6 21:20:01 10° WSW 21:24:46 81° S 21:29:33 10° E
Spot 1 4.1 21:20:56 10° NNE 21:24:57 54° ESE 21:28:04 17° S
Cosmos 1626 3.7 21:24:36 14° E 21:25:10 15° E 21:27:04 10° NE
Nadezhda 4 Rocket 4.0 21:21:16 12° S 21:26:55 66° E 21:33:08 10° NNE
Cosmos 614 Rocket 4.5 21:25:40 16° SSE 21:29:21 41° ESE 21:34:16 10° NE
SPOT 5 4.4 21:28:19 10° SSW 21:32:07 26° W 21:35:51 10° NW
Meteor 1-19 Rocket 4.3 21:28:46 10° S 21:34:40 83° E 21:40:24 10° NNE
Cosmos 1603 3.9 21:30:46 10° SSW 21:36:26 77° WNW 21:42:12 10° NNE
Cosmos 1833 Rocket 4.2 21:35:25 15° ESE 21:36:57 17° E 21:40:26 10° ENE
Okean 1 3.6 21:33:59 10° SSW 21:37:47 62° WNW 21:41:39 10° N
Cosmos 2369 Rocket 4.3 21:34:48 10° WNW 21:38:36 19° W 21:42:24 10° SW
Cosmos 1151 Rocket 3.0 21:37:10 20° S 21:40:06 66° E 21:44:25 10° NNE
Cosmos 1975 3.2 21:37:24 10° N 21:41:14 48° ENE 21:43:09 26° SE
Meteor 1-11 Rocket 4.4 21:36:56 10° NNW 21:42:26 52° W 21:47:34 12° SSW
Cosmos 1328 Rocket 4.4 21:45:12 24° SE 21:46:58 33° E 21:50:52 10° NNE
Meteor 2-17 Rocket 4.4 21:41:44 12° S 21:47:18 88° E 21:53:23 10° N
Cosmos 1302 Rocket 4.2 21:44:10 10° NNW 21:49:19 66° WSW 21:52:42 22° S
Cosmos 1536 4.4 21:46:28 10° NNW 21:49:54 29° W 21:53:08 11° SSW
Cosmos 1992 Rocket 4.1 21:44:47 10° NNW 21:50:01 69° ENE 21:53:10 24° SE
Cosmos 1726 4.4 21:49:19 10° NW 21:51:12 15° W 21:53:05 10° SW
Cosmos 1500 Rocket 4.4 21:48:06 10° NNW 21:52:12 43° W 21:55:23 15° SSW
USA 306 4.1 21:50:32 10° W 21:53:40 24° SW 21:54:47 21° SSW
Cosmos 1656 3.8 21:49:14 10° NNW 21:54:41 67° ENE 21:58:06 23° SE
Cosmos 1766 4.3 21:54:33 10° N 21:57:57 31° ENE 21:59:18 24° ESE
Cosmos 1805 3.1 21:56:10 10° NNW 21:59:53 79° W 22:01:33 31° S
Lacrosse 4 Rocket 1.4 21:56:23 10° NNW 22:00:28 72° NE 22:02:26 30° SE
Cosmos 1733 4.2 21:57:58 10° NNW 22:01:14 36° W 22:03:12 19° SSW
Cosmos 1470 Rocket 4.4 21:58:01 10° N 22:02:13 39° ENE 22:04:11 25° SE
H-2A R/B 3.6 22:02:16 22° ESE 22:04:15 34° ENE 22:08:06 10° N
IRIDIUM 104 4.3 22:01:06 10° N 22:06:21 83° E 22:09:22 26° S
Cosmos 2026 Rocket 4.0 22:02:10 22° S 22:06:25 69° E 22:12:37 10° NNE
Cosmos 1470 4.4 22:05:13 10° NNE 22:08:04 20° ENE 22:09:19 17° E
Cosmos 1633 Rocket 3.1 22:05:04 10° N 22:09:29 70° E 22:11:28 32° SSE
USA 59 Rocket 0.4 22:06:47 10° NW 22:10:41 57° SW 22:13:06 29° SSE
Landsat 5 4.0 22:07:52 10° N 22:11:32 50° WNW 22:14:26 16° SW
Cosmos 1666 Rocket 3.4 22:07:14 10° N 22:11:35 88° E 22:13:32 32° S
NOSS 3-3 (A) 3.9 22:08:04 20° S 22:11:39 51° ESE 22:17:42 10° NE
NOSS 2-1 (E) 3.9 22:08:52 10° NW 22:12:46 55° SW 22:15:08 29° SSE
Orbus 7S? 4.3 22:13:47 29° SE 22:13:47 29° SE 22:16:13 10° ENE
Cosmos 1340 4.0 22:10:50 10° NNW 22:13:47 28° W 22:15:25 19° SW
IRIDIUM 114 4.3 22:10:14 10° N 22:15:30 83° W 22:18:30 26° S
Cosmos 220 Rocket 4.0 22:18:09 21° SSW 22:21:01 81° WNW 22:25:21 10° NNE
CZ-2C R/B 3.7 22:17:16 10° NNE 22:21:46 65° ESE 22:23:38 33° S
Cosmos 44 Rocket 4.0 22:17:20 10° NNW 22:22:11 49° NE 22:25:16 20° ESE
IRIDIUM 103 4.5 22:19:25 10° N 22:24:37 70° W 22:27:38 26° SSW
Cosmos 1818 3.5 22:21:17 18° SSW 22:25:22 68° SE 22:30:50 10° NE
NOSS 2-1 (D) 4.3 22:21:37 10° NW 22:25:24 41° SW 22:27:18 29° S
NOSS 3-4 (A) 4.4 22:20:45 10° NW 22:27:16 53° NE 22:34:26 11° ESE
Cosmos 1933 Rocket 4.5 22:23:17 10° N 22:27:21 36° ENE 22:29:00 27° ESE
NOSS 3-4 (C) 4.4 22:20:51 10° NW 22:27:21 53° NE 22:34:35 11° ESE
ALOS 2 3.8 22:26:21 22° ESE 22:28:20 33° ENE 22:32:16 10° N
BREEZE-M DEB (TANK) 4.3 22:31:06 26° ESE 22:31:06 26° ESE 22:34:48 10° ENE
Cosmos 1697 Rocket 3.1 22:26:39 10° NNW 22:32:14 58° ENE 22:35:28 25° SE
USA 281 4.0 22:30:22 20° SSW 22:34:26 41° WSW 22:40:39 10° NW
Cosmos 1553 Rocket 3.9 22:30:41 10° N 22:36:47 74° E 22:39:56 30° SSE
GEOS 3 Rocket 3.8 22:31:53 10° NE 22:37:04 71° NW 22:42:09 10° SW
Meteor 2-4 Rocket 4.1 22:33:19 19° SSW 22:37:35 69° WNW 22:43:33 10° N
Cosmos 1674 3.0 22:37:26 40° ESE 22:37:45 42° E 22:41:05 10° NNE
Cosmos 1607 4.5 22:37:13 29° SSE 22:39:46 41° ESE 22:45:47 10° NE
Cosmos 1980 Rocket 3.4 22:35:09 10° NNW 22:40:26 37° NE 22:44:37 15° ESE
NOSS 3-3 (C) 3.7 22:38:08 18° SSW 22:42:15 75° SE 22:48:41 10° NE
Terra 4.3 22:40:37 10° WSW 22:42:25 12° W 22:44:14 10° WNW
MINOTAUR 4 R/B 3.7 22:41:16 10° N 22:44:13 66° WNW 22:44:36 57° WSW
Cosmos 1066 Rocket 4.3 22:41:55 29° S 22:45:03 83° E 22:50:58 10° NNE
Cosmos 407 Rocket 4.4 22:49:43 29° SE 22:51:04 33° ESE 22:55:44 10° NE
Lacrosse 5 rocket 3.1 22:47:44 10° NW 22:51:34 33° NNE 22:55:17 10° E
ARIANE 5 R/B 3.0 22:50:12 35° SSW 22:51:44 54° W 22:55:58 10° NNW
Cosmos 1908 3.7 22:50:18 10° N 22:53:43 41° ENE 22:54:20 37° ESE
USA 234 4.1 22:47:43 10° E 22:54:00 51° NNE 23:00:17 10° WNW
Cosmos 1269 Rocket 4.2 22:54:33 23° SW 22:57:54 72° WNW 23:03:12 10° NNE
Cosmos 1626 3.2 22:57:25 26° WSW 22:58:24 33° WNW 23:01:23 10° N
CZ-3 Stage 3 4.5 22:44:06 10° SW 23:01:32 26° S 23:03:03 25° S
Cosmos 2251 Rocket 4.2 23:01:47 32° SE 23:03:11 37° ESE 23:08:01 10° NE
PSLV R/B 4.3 23:01:58 10° N 23:05:58 56° WNW 23:07:34 32° SW
SL-8 R/B 3.5 23:02:25 10° W 23:07:11 75° SSW 23:10:29 20° ESE
Cosmos 1707 2.5 23:09:21 61° SE 23:09:48 70° E 23:13:26 10° NNE
BREEZE-M DEB (TANK) 2.9 23:08:31 10° W 23:14:08 14° ESE 23:15:06 10° ESE
Cosmos 1441 Rocket 3.5 23:10:28 10° N 23:13:58 48° ENE 23:14:30 44° ESE
SL-16 R/B 4.3 23:10:04 10° N 23:14:26 22° NE 23:18:44 10° E
Cosmos 2266 Rocket 4.1 23:12:28 34° SSE 23:15:15 67° E 23:21:29 10° NNE
Spot 4 3.9 23:13:59 40° S 23:15:35 67° WSW 23:20:21 10° NNW
Cosmos 1842 3.1 23:15:46 54° SW 23:16:28 72° W 23:20:09 10° N
Cosmos 1655 Rocket 4.4 23:15:56 30° SSE 23:18:46 52° E 23:24:56 10° NNE
Cosmos 1833 Rocket 2.6 23:17:03 28° SSW 23:20:07 85° WNW 23:25:47 10° NNE
Cosmos 2082 Rocket 3.0 23:23:06 30° SE 23:24:40 35° ESE 23:29:49 10° NE
Cosmos 1300 3.7 23:26:55 10° N 23:30:11 32° ENE 23:30:52 30° E
Cosmos 1515 Rocket 4.2 23:28:42 31° SW 23:30:21 46° WNW 23:34:33 10° N
KORONAS-FOTON 4.1 23:30:14 44° WSW 23:30:58 53° WNW 23:34:37 10° N
Meteor 1-22 Rocket 4.1 23:26:21 10° N 23:31:41 75° ENE 23:33:54 37° SSE
Cosmos 2228 Rocket 4.0 23:31:44 32° ESE 23:32:50 37° E 23:37:00 10° NNE
Meteor 1-15 Rocket 4.2 23:30:16 10° N 23:35:57 82° ENE 23:38:17 37° SSE
SL-08 ROCKET BODY 4.4 23:33:08 35° S 23:35:58 84° E 23:42:12 10° N
H-2A R/B 2.5 23:33:05 10° NNE 23:37:25 50° E 23:38:23 42° SE
Lacrosse 4 Rocket 3.5 23:36:02 10° WNW 23:38:12 14° WSW 23:38:21 14° WSW
Cosmos 1733 Rocket 3.8 23:34:22 10° N 23:38:31 43° ENE 23:39:58 32° ESE
H-2A R/B 3.8 23:38:15 25° WSW 23:39:13 28° W 23:42:53 10° NW
Cosmos 1869 Rocket 3.6 23:37:05 10° NNW 23:41:26 69° W 23:42:30 48° SSW
Cosmos 1470 3.7 23:40:11 10° NNW 23:43:32 32° W 23:43:59 31° WSW
Cosmos 1400 Rocket 2.9 23:54:09 53° SE 23:54:48 63° E 23:58:45 10° NNE
